Regional Weather Roundup
Issued by NWS San Diego, CA

Home | Current Version | Previous Version | Text Only | Print | Product List | Glossary On
Versions: 1 2 3 4 5 6 7 8 9 10 11 12 13 14 15 16 17 18 19 20 21 22 23 24 25 26 27
000
ASUS46 KSGX 310511
RWRSGX

SAN DIEGO HOURLY WEATHER ROUNDUP
NATIONAL WEATHER SERVICE SAN DIEGO CA
1000 PM PDT MON MAY 30 2016

NOTE: "FAIR" INDICATES FEW OR NO CLOUDS BELOW 12,000 FEET WITH NO
SIGNIFICANT WEATHER AND/OR OBSTRUCTIONS TO VISIBILITY.

CAZ042-043-060-061-PZZ750-775-310600-

GREATER SAN DIEGO AREA

CITY           SKY/WX    TMP DP  RH WIND       PRES   REMARKS
LINDBERGH FLD  CLOUDY    65  56  72 NW7       29.95R
POINT LOMA       N/A     61  56  84 NW9         N/A
NATIONAL CITY    N/A     64  59  83 N3        29.94R
CHULA VISTA      N/A     64  59  85 NW3       29.86R
IMPERIAL BEACH CLOUDY    66  57  72 NW7       29.94S
BROWN FIELD    CLOUDY    61  57  87 CALM      29.93S
MIRAMAR MCAS   MOCLDY    65  56  72 NW5       29.93R
MONTGOMERY FLD CLOUDY    63  56  78 NW8       29.93S

$$

NORTH SAN DIEGO COUNTY

CITY           SKY/WX    TMP DP  RH WIND       PRES   REMARKS
CAMP PENDLETON CLEAR     61  56  83 CALM      29.92R
OCEANSIDE AP   CLOUDY    61  55  81 W3        29.92R
OCEANSIDE HBR    N/A     62  59  89 NW6       29.95S
VISTA            N/A     61  56  85 CALM      29.91R
CARLSBAD       CLOUDY    63  57  81 CALM      29.92R
DEL MAR          N/A     62  58  86 CALM      29.96R
LA JOLLA SCRIP   N/A     62  58  87 W3        29.93R
FALLBROOK        N/A     60  58  96 CALM      29.90S
ESCONDIDO        N/A     61  56  83 CALM      29.94S
SAN MARCOS       N/A     60  52  74 CALM      29.91R
POWAY            N/A     60  55  84 CALM      29.94R

$$

EAST SAN DIEGO COUNTY

CITY           SKY/WX    TMP DP  RH WIND       PRES   REMARKS
RAMONA         CLEAR     53  50  89 W6        29.93R
SANTEE LAKES     N/A     61  56  84 CALM      29.92R
LA MESA          N/A     60  56  87 CALM      29.87R
JAMUL            N/A     58  55  88 CALM      29.93
DESCANSO N       N/A     56  44  65 E7        29.81R
MT. LAGUNA OBS   N/A     60  33  36 W1        29.68R
CAMPO            N/A     55  50  83 N5        29.92S

$$

ORANGE COUNTY AND THE LOS ANGELES BASIN

CITY           SKY/WX    TMP DP  RH WIND       PRES   REMARKS
JOHN WAYNE AP  PTCLDY    61  55  81 CALM      29.93R
LAKE FOREST FR   N/A     58  52  80 CALM      29.82R
HUNTINGTON BCH   N/A     61  58  91 W6        29.95R
LOS ALAMITOS   FAIR      61  56  81 W6        29.92R
FULLERTON      CLEAR     60  55  83 W3        29.92R
LONG BEACH     CLEAR     61  56  83 NW7       29.93R
L.A. AP        MOCLDY    61  55  81 W12       29.92S
L.A. DOWNTOWN  MOCLDY    62  55  77 CALM      29.92R

$$

THE INLAND EMPIRE

CITY           SKY/WX    TMP DP  RH WIND       PRES   REMARKS
CORONA         CLEAR     64  56  75 NW8       29.92R
CHINO          CLEAR     64  55  72 W9        29.93R
ONTARIO        PTCLDY    64  54  69 W7        29.91R
RIVERSIDE AP   CLEAR     65  54  67 W6        29.92R
MORENO VALLEY    N/A     66  58  76 CALM      28.03S
MARCH ARB      CLEAR     64  54  70 NW5       29.92R
HORSETHIEF CYN   N/A     64  51  61 NW2       29.94R
PERRIS           N/A     66  57  72 NW5       29.89R
HEMET EAST       N/A     66  53  61 CALM      29.80R
FRENCH VALLEY  FAIR      63  54  72 S6        29.93S
TEMECULA         N/A     62  57  82 S2        29.89R

$$

SAN BERNARDINO AND RIVERSIDE COUNTY MOUNTAINS

CITY           SKY/WX    TMP DP  RH WIND       PRES   REMARKS
BIG BEAR AP    CLEAR     54  30  40 CALM      30.17R
PINE COVE        N/A     58  37  44 N3        29.87R

$$

SOUTHERN DESERT INCLUDING THE COACHELLA VALLEY

CITY           SKY/WX    TMP DP  RH WIND       PRES   REMARKS
PALM SPRINGS   CLEAR     86  51  29 NW10      29.78R
THOUSAND PALMS   N/A     84  51  31 W8        29.74R
PALM DESERT      N/A     85  54  34 CALM      26.22S
THERMAL        CLEAR     76  44  32 NW3       29.72R
BLYTHE         PTCLDY    88  39  17 SW10      29.73R
IMPERIAL AP    CLEAR     85  40  20 SW10      29.73R
EL CENTRO NAS  CLEAR     82  41  23 S9        29.75R
YUMA AZ        CLEAR     83  45  26 SW7       29.75
MEXICALI       CLEAR     81  43  26 S7        29.75R

$$

UPPER DESERT

CITY           SKY/WX    TMP DP  RH WIND       PRES   REMARKS
VICTORVILLE AP CLEAR     77  37  24 W14       29.93R
HESPERIA         N/A     69  46  43 W5        29.93R
PALMDALE       CLEAR     78  34  20 W16       29.93R
LANCASTER      CLEAR     79  36  21 W14       29.90R
EDWARDS AFB    CLEAR     80  39  23 W15       29.85R
DAGGETT        CLEAR     87  36  16 W21       29.83R
29 PALMS N     PTCLDY    82  34  17 SW13      29.90R
NEEDLES        CLOUDY    93  26   9 W13       29.73S

$$

REGIONAL REPORTS

CITY           SKY/WX    TMP DP  RH WIND       PRES   REMARKS
SANTA BARBARA  PTCLDY    57  54  89 E6        29.91S
SANDBERG       CLEAR     70  33  25 N16G26    30.07S
LAS VEGAS NV   MOCLDY    89  30  12 S3        29.78R
PHOENIX AZ     CLEAR     84  24  11 CALM      29.77R
TIJUANA        CLOUDY    61  54  77 W9        29.95R
ENSENADA NW      N/A     63  32  31 NW6       29.91R

$$

OFFSHORE ISLANDS

CITY           SKY/WX    TMP DP  RH WIND       PRES   REMARKS
CATALINA ARPT  FOG       52  52 100 SW9       29.94S VSB 1/4
SAN NICOLAS IS CLOUDY   N/A N/A N/A NW10      29.94S

$$

MARINE AND OFFSHORE BUOY REPORTS

STATION/POSITION SKY/WX   TEMP    WIND        PRES    SWELL
                          AIR SEA DIR/SP/G            HT/PER/DIR
                          (F)     (DEG/KT/KT) (MB)    (FT/S/D)
TANNER BANKS               58 61  320/ 12/ 17 1014.3R   5/200/17
S CLEMENTE BASIN           60 63  280/ 10/ 12 1013.5R   5/210/16
SAN NICOLAS IS.               59                N/A     3/200/17
SO. S. ROSA ISLA           56 58  300/ 17/ 21 1013.6S   5/210/17
W. S. BARBARA CH           55 56  310/ 17/ 21 1013.3R   3/310/ 9
M. S. BARBARA CH           57 59  250/ 10/ 12 1013.5S
S. MONICA BASIN            60 64  300/  8/ 10 1013.7R   3/210/17
S PEDRO CHANNEL               63                N/A     2/200/18
OCEANSIDE OFFSHR              65                N/A     3/200/17
TORREY PINES OTR              65                N/A     3/210/17
LA JOLLA 1                 63 66  320/  7/  9 1013.1
SAN DIEGO BAY                 68              1013.5
POINT LOMA SOUTH              65                N/A     3/210/17

$$





USA.gov is the U.S. government's official web portal to all federal, state and local government web resources and services.